Aérodrome :
LOGIN :

S'inscrire | Disclaimer

   EN    FR    IT 

 










Légende :    VFR   VFR Marginal   IFR   IFR Intensif   IFR Très Intensif
Visi : 
Plafond : 
>= 8 km
>= 3000ft
5 à 8 km
1000 à 3000 ft
1500m à 5 km
500 à 1000 ft
800 à 1500m
200 à 500 ft
< 800m
< 200 ft
Symboles :   Orages  Brouillard  Fortes neiges  Fortes précipitations  Vent > 20 kt
SIGMETs :   Divers  Orages  Givrage  Turbulence  Onde Orograph.  Cendres Volcan.






- Altitude de l'aérodrome : 396 ft


LFOZ - Orléans St Denis

DERNIER METAR :
  • 050800Z AUTO 25007KT 220V290 9999 SCT008 BKN012 BKN028 17/16 Q1012

METARs EXPIRÉS :
  • 050730Z AUTO 25005KT 220V280 9999 SCT006 OVC028 17/16 Q1012
  • 050700Z AUTO 25005KT 9999 BKN005 OVC028 16/15 Q1012
  • 050630Z AUTO 26006KT 9999 BKN005 BKN027 BKN033 16/15 Q1012
  • 050600Z AUTO 27007KT 9999 BKN005 OVC010 16/15 Q1012
  • 050530Z AUTO 26003KT 9999 FEW005 BKN020 BKN025 16/15 Q1011

TAF N/A



MET'MAP, la Météo Aéronautique d'un coup d'oeil ! - Copyright ORBIFLY Décembre 2007 - Disclaimer

ORBIFLY MET'MAP TEAM :

Programmation & Développement : Alexandra Zaïnal
Sur une idée originale de : Baudouin d'Aumeries
Assistance à la programmation : Marc-Olivier Méhu
Soutien technique & logistique : Manuel Goepfert

Contact : metmap@orbifly.com




SOURCES & CREDITS :

   NOAA